DW8404 Weather Reports


time (UTC)temp
C
wind
direction
speed
KPH
gust
KPH
rain 1hr
cm
rain 24hr
cm
rain mn
cm
humidity
%
barometer
mb
20260906040003 29 0 0.0 0.0 0.00 0.00 0.00 78 1012.3
20260906035714 29 0 0.0 0.0 0.00 0.00 0.00 77 1012.2
20260906035217 29 0 0.0 0.0 0.00 0.00 0.00 77 1012.2
20260906034503 29 0 0.0 0.0 0.00 0.00 0.00 77 1012.4
20260906034213 29 0 0.0 0.0 0.00 0.00 0.00 77 1012.4
20260906033503 30 0 0.0 0.0 0.00 0.00 0.00 76 1012.3
20260906033215 30 0 0.0 0.0 0.00 0.00 0.00 76 1012.3
20260906032717 30 0 0.0 0.0 0.00 0.00 0.00 76 1012.3
20260906032003 30 0 0.0 0.0 0.00 0.00 0.00 75 1012.2
20260906031713 30 0 0.0 0.0 0.00 0.00 0.00 75 1012.1
20260906031216 30 0 0.0 0.0 0.00 0.00 0.00 74 1012.0
20260906030503 30 0 0.0 0.0 0.00 0.00 0.00 75 1011.9
20260906030217 30 0 0.0 0.0 0.00 0.00 0.00 75 1011.9
20260906025503 30 0 0.0 0.0 0.00 0.00 0.00 75 1011.9
20260906025003 30 0 0.0 0.0 0.00 0.00 0.00 75 1011.8
20260906024504 30 0 0.0 0.0 0.00 0.00 0.00 74 1011.7
20260906024214 30 0 0.0 0.0 0.00 0.00 0.00 74 1011.7
20260906023503 30 0 0.0 0.0 0.00 0.00 0.00 75 1011.7
20260906023214 30 0 0.0 0.0 0.00 0.00 0.00 75 1011.6
20260906022503 30 0 0.0 0.0 0.00 0.00 0.00 75 1011.5
20260906022215 30 0 0.0 0.0 0.00 0.00 0.00 75 1011.6
20260906021503 30 0 0.0 0.0 0.00 0.00 0.00 77 1011.5
20260906021216 30 0 0.0 0.0 0.00 0.00 0.00 77 1011.5
20260906020714 30 0 0.0 0.0 0.00 0.00 0.00 79 1011.3
20260906020217 29 0 0.0 0.0 0.00 0.00 0.00 79 1011.3
20260906015715 29 0 0.0 0.0 0.00 0.00 0.00 80 1011.3
20260906015213 29 0 0.0 0.0 0.00 0.00 0.00 81 1011.2
20260906014716 29 0 0.0 0.0 0.00 0.00 0.00 81 1011.1
20260906014004 30 0 0.0 0.0 0.00 0.00 0.00 83 1011.0
20260906013503 30 0 0.0 0.0 0.00 0.00 0.00 80 1011.0
20260906013003 30 0 0.0 0.0 0.00 0.00 0.00 78 1010.9
20260906012713 30 0 0.0 0.0 0.00 0.00 0.00 78 1010.9
20260906012216 30 0 0.0 0.0 0.00 0.00 0.00 78 1010.8
20260906011714 31 0 0.0 0.0 0.00 0.00 0.00 78 1010.7
20260906011217 31 0 0.0 0.0 0.00 0.00 0.00 79 1010.7
20260906010715 31 0 0.0 0.0 0.00 0.00 0.00 76 1010.7
20260906010213 31 0 0.0 0.0 0.00 0.00 0.00 75 1010.6
20260906005503 31 0 0.0 0.0 0.00 0.00 0.00 73 1010.6
20260906005214 31 0 0.0 0.0 0.00 0.00 0.00 72 1010.5
20260906004503 32 0 0.0 0.0 0.00 0.00 0.00 71 1010.4
20260906004215 32 0 0.0 0.0 0.00 0.00 0.00 70 1010.4
20260906003713 32 0 0.0 0.0 0.00 0.00 0.00 70 1010.4
20260906003216 32 0 0.0 0.0 0.00 0.00 0.00 69 1010.4
20260906002714 32 0 0.0 0.0 0.00 0.00 0.00 69 1010.4
20260906002217 32 0 0.0 0.0 0.00 0.00 0.00 69 1010.4
20260906001503 32 0 0.0 0.0 0.00 0.00 0.00 69 1010.5
20260906001212 32 0 0.0 0.0 0.00 0.00 0.00 68 1010.6
20260906000503 32 0 0.0 0.0 0.00 0.00 0.00 69 1010.6
20260906000213 32 0 0.0 0.0 0.00 0.00 0.00 69 1010.6
20260905235716 33 0 0.0 0.0 0.00 0.00 0.00 70 1010.6
20260905235003 33 0 0.0 0.0 0.00 0.00 0.00 69 1010.6
20260905234712 33 0 0.0 0.0 0.00 0.00 0.00 69 1010.6
20260905234003 33 0 0.0 0.0 0.00 0.00 0.00 68 1010.5
20260905233713 33 0 0.0 0.0 0.00 0.00 0.00 68 1010.6
20260905233003 33 0 0.0 0.0 0.00 0.00 0.00 68 1010.7
20260905232714 33 0 0.0 0.0 0.00 0.00 0.00 67 1010.6
20260905232003 34 0 0.0 0.0 0.00 0.00 0.00 66 1010.6
20260905231503 34 0 0.0 0.0 0.00 0.00 0.00 63 1010.5
20260905231213 34 0 0.0 0.0 0.00 0.00 0.00 63 1010.5
20260905230503 34 0 0.0 0.0 0.00 0.00 0.00 63 1010.4
20260905230214 34 0 0.0 0.0 0.00 0.00 0.00 64 1010.4
20260905225505 34 0 0.0 0.0 0.00 0.00 0.00 64 1010.4
20260905225003 34 0 0.0 0.0 0.00 0.00 0.00 62 1010.5
20260905224713 33 0 0.0 0.0 0.00 0.00 0.00 61 1010.5
20260905224216 34 0 0.0 0.0 0.00 0.00 0.00 63 1010.5
20260905223503 34 0 0.0 0.0 0.00 0.00 0.00 59 1010.5
20260905223217 34 0 0.0 0.0 0.00 0.00 0.00 59 1010.4
20260905222503 34 0 0.0 0.0 0.00 0.00 0.00 57 1010.4
20260905222003 35 0 0.0 0.0 0.00 0.00 0.00 58 1010.3
20260905221503 35 0 0.0 0.0 0.00 0.00 0.00 56 1010.4
20260905221003 35 0 0.0 0.0 0.00 0.00 0.00 55 1010.4
20260905220717 35 0 0.0 0.0 0.00 0.00 0.00 55 1010.3
20260905220215 35 0 0.0 0.0 0.00 0.00 0.00 54 1010.4
20260905215503 35 0 0.0 0.0 0.00 0.00 0.00 53 1010.4
20260905215216 35 0 0.0 0.0 0.00 0.00 0.00 52 1010.4
20260905214714 35 0 0.0 0.0 0.00 0.00 0.00 52 1010.4
20260905214003 36 0 0.0 0.0 0.00 0.00 0.00 51 1010.4
20260905213715 36 0 0.0 0.0 0.00 0.00 0.00 50 1010.3
20260905213212 36 0 0.0 0.0 0.00 0.00 0.00 48 1010.3
20260905212503 36 0 0.0 0.0 0.00 0.00 0.00 47 1010.3
20260905212003 36 0 0.0 0.0 0.00 0.00 0.00 47 1010.4
20260905211503 36 0 0.0 0.0 0.00 0.00 0.00 47 1010.3
20260905211214 37 0 0.0 0.0 0.00 0.00 0.00 46 1010.3
20260905210503 36 0 0.0 0.0 0.00 0.00 0.00 48 1010.5
20260905210003 36 0 0.0 0.0 0.00 0.00 0.00 48 1010.6
20260905205503 36 0 0.0 0.0 0.00 0.00 0.00 49 1010.7
20260905205003 36 0 0.0 0.0 0.00 0.00 0.00 50 1010.7
20260905204503 36 0 0.0 0.0 0.00 0.00 0.00 49 1010.8
20260905204003 35 0 0.0 0.0 0.00 0.00 0.00 52 1010.8
20260905203715 35 0 0.0 0.0 0.00 0.00 0.00 51 1010.8
20260905203003 35 0 0.0 0.0 0.00 0.00 0.00 54 1010.8
20260905202716 35 0 0.0 0.0 0.00 0.00 0.00 54 1010.7
20260905202003 34 0 0.0 0.0 0.00 0.00 0.00 55 1010.9
20260905201717 34 0 0.0 0.0 0.00 0.00 0.00 54 1010.9
20260905201003 33 0 0.0 0.0 0.00 0.00 0.00 55 1011.1
20260905200713 33 0 0.0 0.0 0.00 0.00 0.00 55 1011.2
20260905200216 33 0 0.0 0.0 0.00 0.00 0.00 56 1011.2
20260905195714 33 0 0.0 0.0 0.00 0.00 0.00 56 1011.3
20260905195217 34 0 0.0 0.0 0.00 0.00 0.00 54 1011.3
20260905194503 35 0 0.0 0.0 0.00 0.00 0.00 53 1011.4
20260905194003 35 0 0.0 0.0 0.00 0.00 0.00 50 1011.4
20260905193716 35 0 0.0 0.0 0.00 0.00 0.00 50 1011.5
20260905193003 36 0 0.0 0.0 0.00 0.00 0.00 48 1011.5
20260905192717 36 0 0.0 0.0 0.00 0.00 0.00 47 1011.4
20260905192003 36 0 0.0 0.0 0.00 0.00 0.00 45 1011.4
20260905191503 37 0 0.0 0.0 0.00 0.00 0.00 45 1011.6
20260905191003 37 0 0.0 0.0 0.00 0.00 0.00 44 1011.5
20260905190504 37 0 0.0 0.0 0.00 0.00 0.00 44 1011.5
20260905190003 37 0 0.0 0.0 0.00 0.00 0.00 45 1011.5
20260905185715 37 0 0.0 0.0 0.00 0.00 0.00 46 1011.6
20260905185212 36 0 0.0 0.0 0.00 0.00 0.00 44 1011.6
20260905184503 36 0 0.0 0.0 0.00 0.00 0.00 45 1011.8
20260905184213 36 0 0.0 0.0 0.00 0.00 0.00 45 1011.7
20260905183503 36 0 0.0 0.0 0.00 0.00 0.00 47 1011.9
20260905183215 36 0 0.0 0.0 0.00 0.00 0.00 48 1011.9
20260905182718 36 0 0.0 0.0 0.00 0.00 0.00 49 1012.0
20260905182004 36 0 0.0 0.0 0.00 0.00 0.00 50 1012.1
20260905181713 36 0 0.0 0.0 0.00 0.00 0.00 50 1012.1
20260905181003 36 0 0.0 0.0 0.00 0.00 0.00 51 1012.2
20260905180503 35 0 0.0 0.0 0.00 0.00 0.00 51 1012.2
20260905180217 35 0 0.0 0.0 0.00 0.00 0.00 54 1012.3
20260905175503 35 0 0.0 0.0 0.00 0.00 0.00 53 1012.3
20260905175003 35 0 0.0 0.0 0.00 0.00 0.00 54 1012.3
20260905174716 35 0 0.0 0.0 0.00 0.00 0.00 54 1012.4
20260905174214 35 0 0.0 0.0 0.00 0.00 0.00 55 1012.4
20260905173503 35 0 0.0 0.0 0.00 0.00 0.00 55 1012.4
20260905173003 35 0 0.0 0.0 0.00 0.00 0.00 56 1012.3
20260905172504 35 0 0.0 0.0 0.00 0.00 0.00 56 1012.4
20260905172216 35 0 0.0 0.0 0.00 0.00 0.00 57 1012.3
20260905171714 35 0 0.0 0.0 0.00 0.00 0.00 57 1012.5
20260905171003 34 0 0.0 0.0 0.00 0.00 0.00 58 1012.5
20260905170503 34 0 0.0 0.0 0.00 0.00 0.00 58 1012.7
20260905170004 34 0 0.0 0.0 0.00 0.00 0.00 58 1012.7
20260905165716 34 0 0.0 0.0 0.00 0.00 0.00 58 1012.7
20260905165003 33 0 0.0 0.0 0.00 0.00 0.00 61 1012.9
20260905164503 33 0 0.0 0.0 0.00 0.00 0.00 60 1013.0
20260905164215 33 0 0.0 0.0 0.00 0.00 0.00 60 1013.0
20260905163713 33 0 0.0 0.0 0.00 0.00 0.00 60 1013.0
20260905163216 33 0 0.0 0.0 0.00 0.00 0.00 62 1013.0
20260905162503 33 0 0.0 0.0 0.00 0.00 0.00 62 1013.1
20260905162217 33 0 0.0 0.0 0.00 0.00 0.00 62 1013.2
20260905161715 33 0 0.0 0.0 0.00 0.00 0.00 63 1013.2
20260905161003 32 0 0.0 0.0 0.00 0.00 0.00 64 1013.2
20260905160503 32 0 0.0 0.0 0.00 0.00 0.00 64 1013.2
20260905160213 32 0 0.0 0.0 0.00 0.00 0.00 65 1013.2
20260905155716 32 0 0.0 0.0 0.00 0.00 0.00 65 1013.3
20260905155003 32 0 0.0 0.0 0.00 0.00 0.00 64 1013.3
20260905154503 32 0 0.0 0.0 0.00 0.00 0.00 64 1013.3
20260905154215 32 0 0.0 0.0 0.00 0.00 0.00 64 1013.2
20260905153713 32 0 0.0 0.0 0.00 0.00 0.00 64 1013.1
20260905153216 31 0 0.0 0.0 0.00 0.00 0.00 65 1013.2
20260905152503 31 0 0.0 0.0 0.00 0.00 0.00 65 1013.3
20260905152217 31 0 0.0 0.0 0.00 0.00 0.00 66 1013.4
20260905151715 31 0 0.0 0.0 0.00 0.00 0.00 67 1013.3
20260905151213 31 0 0.0 0.0 0.00 0.00 0.00 68 1013.3
20260905150503 31 0 0.0 0.0 0.00 0.00 0.00 68 1013.2
20260905150214 30 0 0.0 0.0 0.00 0.00 0.00 70 1013.2
20260905145717 30 0 0.0 0.0 0.00 0.00 0.00 70 1013.2
20260905145215 30 0 0.0 0.0 0.00 0.00 0.00 71 1013.2
20260905144503 30 0 0.0 0.0 0.00 0.00 0.00 72 1013.0
20260905144216 30 0 0.0 0.0 0.00 0.00 0.00 72 1013.0
20260905143503 30 0 0.0 0.0 0.00 0.00 0.00 73 1013.1
20260905143003 29 0 0.0 0.0 0.00 0.00 0.00 74 1013.0
20260905142503 29 0 0.0 0.0 0.00 0.00 0.00 75 1013.1
20260905142213 29 0 0.0 0.0 0.00 0.00 0.00 75 1013.1
20260905141503 28 0 0.0 0.0 0.00 0.00 0.00 76 1013.0
20260905141214 28 0 0.0 0.0 0.00 0.00 0.00 77 1013.0
20260905140503 28 0 0.0 0.0 0.00 0.00 0.00 77 1013.1
20260905140215 28 0 0.0 0.0 0.00 0.00 0.00 77 1013.0
20260905135503 28 0 0.0 0.0 0.00 0.00 0.00 78 1013.1
20260905135216 28 0 0.0 0.0 0.00 0.00 0.00 79 1013.0
20260905134714 28 0 0.0 0.0 0.00 0.00 0.00 82 1013.1
20260905134003 28 0 0.0 0.0 0.00 0.00 0.00 83 1013.1
20260905133503 28 0 0.0 0.0 0.00 0.00 0.00 82 1013.0
20260905133212 28 0 0.0 0.0 0.00 0.00 0.00 81 1013.0
20260905132503 28 0 0.0 0.0 0.00 0.00 0.00 80 1013.0
20260905132213 28 0 0.0 0.0 0.00 0.00 0.00 81 1012.9
20260905131503 28 0 0.0 0.0 0.00 0.00 0.00 82 1013.0
20260905131214 28 0 0.0 0.0 0.00 0.00 0.00 83 1013.0
20260905130503 27 0 0.0 0.0 0.00 0.00 0.00 84 1013.0
20260905130215 27 0 0.0 0.0 0.00 0.00 0.00 85 1013.0
20260905125713 27 0 0.0 0.0 0.00 0.00 0.00 85 1012.8
20260905125216 27 0 0.0 0.0 0.00 0.00 0.00 86 1012.7
20260905124503 26 0 0.0 0.0 0.00 0.00 0.00 91 1012.7
20260905124212 26 0 0.0 0.0 0.00 0.00 0.00 91 1012.6
20260905123503 26 0 0.0 0.0 0.00 0.00 0.00 91 1012.6
20260905123003 26 0 0.0 0.0 0.00 0.00 0.00 91 1012.7
20260905122503 26 0 0.0 0.0 0.00 0.00 0.00 91 1012.6
20260905122003 26 0 0.0 0.0 0.00 0.00 0.00 91 1012.5
20260905121503 26 0 0.0 0.0 0.00 0.00 0.00 91 1012.5
20260905121215 26 0 0.0 0.0 0.00 0.00 0.00 91 1012.4
20260905120503 26 0 0.0 0.0 0.00 0.00 0.00 91 1012.4
20260905120216 26 0 0.0 0.0 0.00 0.00 0.00 91 1012.4
20260905115714 26 0 0.0 0.0 0.00 0.00 0.00 91 1012.3
20260905115217 26 0 0.0 0.0 0.00 0.00 0.00 91 1012.2
20260905114503 26 0 0.0 0.0 0.00 0.00 0.00 91 1012.2
20260905114003 26 0 0.0 0.0 0.00 0.00 0.00 91 1012.2
20260905113503 26 0 0.0 0.0 0.00 0.00 0.00 91 1012.1
20260905113003 26 0 0.0 0.0 0.00 0.00 0.00 91 1012.0
20260905112503 26 0 0.0 0.0 0.00 0.00 0.00 91 1011.9
20260905112003 26 0 0.0 0.0 0.00 0.00 0.00 91 1012.0
20260905111713 26 0 0.0 0.0 0.00 0.00 0.00 91 1011.9
20260905111216 26 0 0.0 0.0 0.00 0.00 0.00 91 1011.9
20260905110714 26 0 0.0 0.0 0.00 0.00 0.00 91 1011.9
20260905110003 26 0 0.0 0.0 0.00 0.00 0.00 91 1011.8
20260905105504 26 0 0.0 0.0 0.00 0.00 0.00 91 1011.9
20260905105003 26 0 0.0 0.0 0.00 0.00 0.00 91 1011.8
20260905104716 26 0 0.0 0.0 0.00 0.00 0.00 91 1011.8
20260905104004 26 0 0.0 0.0 0.00 0.00 0.00 91 1011.8
20260905103716 26 0 0.0 0.0 0.00 0.00 0.00 91 1011.8
20260905103003 26 0 0.0 0.0 0.00 0.00 0.00 91 1011.8
20260905102503 26 0 0.0 0.0 0.00 0.00 0.00 91 1011.9
20260905102215 26 0 0.0 0.0 0.00 0.00 0.00 91 1011.9
20260905101713 26 0 0.0 0.0 0.00 0.00 0.00 91 1011.9
20260905101216 26 0 0.0 0.0 0.00 0.00 0.00 90 1012.0
20260905100503 25 0 0.0 0.0 0.00 0.00 0.00 90 1012.0
20260905100217 25 0 0.0 0.0 0.00 0.00 0.00 89 1012.0
20260905095715 25 0 0.0 0.0 0.00 0.00 0.00 89 1012.0
20260905095213 25 0 0.0 0.0 0.00 0.00 0.00 89 1011.9
20260905094503 25 0 0.0 0.0 0.00 0.00 0.00 89 1011.9
20260905094214 25 0 0.0 0.0 0.00 0.00 0.00 89 1011.9
20260905093717 25 0 0.0 0.0 0.00 0.00 0.00 89 1011.9
20260905093215 25 0 0.0 0.0 0.00 0.00 0.00 89 1012.0
20260905092503 25 0 0.0 0.0 0.00 0.00 0.00 90 1012.0
20260905092216 25 0 0.0 0.0 0.00 0.00 0.00 90 1012.0
20260905091503 25 0 0.0 0.0 0.00 0.00 0.00 90 1012.1
20260905091003 25 0 0.0 0.0 0.00 0.00 0.00 89 1012.1
20260905090715 25 0 0.0 0.0 0.00 0.00 0.00 89 1012.0
20260905090213 25 0 0.0 0.0 0.00 0.00 0.00 89 1012.0
20260905085716 25 0 0.0 0.0 0.00 0.00 0.00 89 1012.0
20260905085214 25 0 0.0 0.0 0.00 0.00 0.00 88 1012.0
20260905084503 25 0 0.0 0.0 0.00 0.00 0.00 88 1012.0
20260905084215 25 0 0.0 0.0 0.00 0.00 0.00 88 1012.1
20260905083713 25 0 0.0 0.0 0.00 0.00 0.00 88 1012.1
20260905083216 26 0 0.0 0.0 0.00 0.00 0.00 87 1012.2
20260905082714 26 0 0.0 0.0 0.00 0.00 0.00 88 1012.1
20260905082217 26 0 0.0 0.0 0.00 0.00 0.00 88 1012.1
20260905081503 26 0 0.0 0.0 0.00 0.00 0.00 88 1012.1
20260905081212 26 0 0.0 0.0 0.00 0.00 0.00 87 1012.2
20260905080503 26 0 0.0 0.0 0.00 0.00 0.00 88 1012.2
20260905080213 26 0 0.0 0.0 0.00 0.00 0.00 88 1012.2
20260905075716 26 0 0.0 0.0 0.00 0.00 0.00 88 1012.3
20260905075003 26 0 0.0 0.0 0.00 0.00 0.00 87 1012.3
20260905074717 26 0 0.0 0.0 0.00 0.00 0.00 87 1012.3
20260905074215 26 0 0.0 0.0 0.00 0.00 0.00 87 1012.3
20260905073503 26 0 0.0 0.0 0.00 0.00 0.00 87 1012.3
20260905073003 26 0 0.0 0.0 0.00 0.00 0.00 86 1012.4
20260905072714 26 0 0.0 0.0 0.00 0.00 0.00 86 1012.4
20260905072003 26 0 0.0 0.0 0.00 0.00 0.00 87 1012.4
20260905071715 26 0 0.0 0.0 0.00 0.00 0.00 88 1012.4
20260905071213 26 0 0.0 0.0 0.00 0.00 0.00 88 1012.5
20260905070716 26 0 0.0 0.0 0.00 0.00 0.00 88 1012.4
20260905070004 26 0 0.0 0.0 0.00 0.00 0.00 88 1012.4
20260905065503 26 0 0.0 0.0 0.00 0.00 0.00 88 1012.4
20260905065215 26 0 0.0 0.0 0.00 0.00 0.00 88 1012.4
20260905064503 26 0 0.0 0.0 0.00 0.00 0.00 88 1012.3
20260905064216 26 0 0.0 0.0 0.00 0.00 0.00 87 1012.3
20260905063714 26 0 0.0 0.0 0.00 0.00 0.00 87 1012.4
20260905063003 26 0 0.0 0.0 0.00 0.00 0.00 88 1012.5
20260905062503 26 0 0.0 0.0 0.00 0.00 0.00 88 1012.5
20260905062003 26 0 0.0 0.0 0.00 0.00 0.00 89 1012.5
20260905061503 26 0 0.0 0.0 0.00 0.00 0.00 88 1012.5
20260905061214 26 0 0.0 0.0 0.00 0.00 0.00 89 1012.5
20260905060717 26 0 0.0 0.0 0.00 0.00 0.00 88 1012.6
20260905060215 26 0 0.0 0.0 0.00 0.00 0.00 88 1012.6
20260905055503 26 0 0.0 0.0 0.00 0.00 0.00 88 1012.7
20260905055216 26 0 0.0 0.0 0.00 0.00 0.00 88 1012.6
20260905054503 27 0 0.0 0.0 0.00 0.00 0.00 88 1012.7
20260905054217 27 0 0.0 0.0 0.00 0.00 0.00 88 1012.7
20260905053715 27 0 0.0 0.0 0.00 0.00 0.00 89 1012.7
20260905053213 27 0 0.0 0.0 0.00 0.00 0.00 89 1012.6
20260905052716 27 0 0.0 0.0 0.00 0.00 0.00 89 1012.6
20260905052213 27 0 0.0 0.0 0.00 0.00 0.00 89 1012.5
20260905051503 27 0 0.0 0.0 0.00 0.00 0.00 89 1012.5
20260905051214 27 0 0.0 0.0 0.00 0.00 0.00 89 1012.5
20260905050503 27 0 0.0 0.0 0.00 0.00 0.00 89 1012.4
20260905050251 27 0 0.0 0.0 0.00 0.00 0.00 89 1012.4
20260905045503 27 0 0.0 0.0 0.00 0.00 0.00 89 1012.5
20260905045003 27 0 0.0 0.0 0.00 0.00 0.00 88 1012.6
20260905044504 27 0 0.0 0.0 0.00 0.00 0.00 88 1012.5
20260905044003 27 0 0.0 0.0 0.00 0.00 0.00 87 1012.5
20260905043715 27 0 0.0 0.0 0.00 0.00 0.00 87 1012.4
20260905043003 27 0 0.0 0.0 0.00 0.00 0.00 87 1012.4
20260905042503 27 0 0.0 0.0 0.00 0.00 0.00 87 1012.4
20260905042003 27 0 0.0 0.0 0.00 0.00 0.00 86 1012.4
20260905041717 27 0 0.0 0.0 0.00 0.00 0.00 86 1012.4
20260905041215 27 0 0.0 0.0 0.00 0.00 0.00 86 1012.4
20260905040503 27 0 0.0 0.0 0.00 0.00 0.00 85 1012.3